Regional Weather Roundup
Issued by NWS

Home | Current Version | Previous Version | Graphics & Text | Print | Product List | Glossary On
Versions: 1 2 3 4 5 6 7 8 9 10 11 12 13 14 15 16 17 18 19 20 21 22 23 24 25 26 27 28 29 30 31 32 33 34 35 36 37 38 39 40 41 42 43 44 45 46 47 48 49 50
000
ASUS43 KLSX 211859
RWRMO

WEATHER SUMMARY FOR MISSOURI
NATIONAL WEATHER SERVICE SPRINGFIELD MO
200 PM CDT TUE OCT 21 2014

NOTE: "FAIR" INDICATES FEW OR NO CLOUDS BELOW 12,000 FEET WITH NO
       SIGNIFICANT WEATHER AND/OR OBSTRUCTIONS TO VISIBILITY.
       CURRENT SKY AND/OR WEATHER CONDITIONS ARE NOT AVAILABLE FOR
       CHILLICOTHE AND FARMINGTON.

MOZ001>031-035>038-043-044-053-054-212000-
...NORTHERN AND WESTERN MISSOURI...

CITY           SKY/WX    TMP DP  RH WIND       PRES   REMARKS
KANSAS CTY INT SUNNY     72  44  36 VRB3      30.10F
KANSAS C DTWN  SUNNY     72  42  34 W3        30.09F
LEE`S SUMMIT   SUNNY     71  41  33 CALM      30.11F
ST JOSEPH      SUNNY     72  41  32 CALM      30.09F
KIRKSVILLE     SUNNY     64  46  52 E8        30.14F

$$
MOZ066>068-077>081-088>096-101>105-212000-
...SOUTHWEST MISSOURI...

CITY           SKY/WX    TMP DP  RH WIND       PRES   REMARKS
SPRINGFIELD    SUNNY     72  41  32 CALM      30.10F
JOPLIN         SUNNY     74  48  39 CALM      30.10F

$$
MOZ032>034-039>042-045>050-055>058-069>072-212000-
...CENTRAL MISSOURI...

CITY           SKY/WX    TMP DP  RH WIND       PRES   REMARKS
COLUMBIA       SUNNY     72  44  36 N5        30.11F
JEFFERSON CITY SUNNY     71  46  40 CALM      30.10F
ROLLA          SUNNY     70  43  37 N9        30.10F
SEDALIA        SUNNY     72  43  35 VRB5      30.12F
OSAGE BEACH    SUNNY     72  43  35 SW5       30.11F

$$
MOZ051-052-059>065-212000-
...EAST CENTRAL MISSOURI...

CITY           SKY/WX    TMP DP  RH WIND       PRES   REMARKS
ST LOUIS INTL  SUNNY     67  45  45 N9        30.12F
SPIRIT OF STL  SUNNY     66  46  48 N7        30.11F
ST CHARLES     SUNNY     66  45  46 N9        30.11F

$$
MOZ072>076-082>087-097>100-106>115-212000-
...SOUTH CENTRAL AND SOUTHEAST MISSOURI...

CITY           SKY/WX    TMP DP  RH WIND       PRES   REMARKS
CAPE GIRARDEAU SUNNY     72  46  39 N15       30.08F
FARMINGTON     SUNNY     68  45  42 NW9       30.11F
POPLAR BLUFF   SUNNY     75  43  31 N14       30.06F
WEST PLAINS    SUNNY     72  42  34 VRB6      30.11F

$$



USA.gov is the U.S. government's official web portal to all federal, state and local government web resources and services.